星链-4301 (STARLINK-4301 )

导读

STARLINK-4301是美国SpaceX星链星座中属于星链Group 4-16批次的互联网通信卫星,NORAD编号52366,于北京时间2022年7月7日由猎鹰9号火箭发射升空,总质量约297kg,运行在高度约550公里的近地轨道,是星链实现全球低延迟宽带互联网覆盖星座布局的组成部分。 星链作为全球规模最大低轨卫星星座,截至2025年9月已累计发射超9400颗卫星,该卫星可依托星座优势为偏远地区、海上及航空场景提供互联网接入服务。

基本信息
目录编号:
52997
目录名称:
STARLINK-4301
国际标识:
2022-076M
轨道中心:
EARTH
卫星名称:
星链-4301
卫星全名:
星链-4301 (STARLINK-4301 )
卫星状态:
已陨落 最后检测时间 2025-02-05
发射日期:
2022-07-07 UTC
国别 :
美国 (US)
星等 :
--
该卫星已列入 空间交会检测服务 Space Conjunction Data Service (SCDS) ,当前飞行风险评估等级: 无高风险
轨道信息
数据来源 国际轨道数据
星历时间: 2025-02-05T13:01:52+0800
轨道信息已过期584天
半长轴: 6523.136km
偏心率: 0.0007952
轨道倾角: 53.193°
近地点辐角 218.463°
升交点赤经 307.969°
平近点角 184.783°
近地点: 139.813km
远地点: 150.189km
周期: 87.387分钟
每日圈数: 16.478517
详细信息
固有亮度:
5
最大亮度:
2.5
卫星平台:
Starlink v1.5
覆盖范围:
全球
运营商:
太空探索技术公司
运营商所在国:
美国
制造商(研发单位):
太空探索技术公司
制造商所在国:
美国
使用方式:
暂无
卫星简介
星链(Starlink)计划是由太空探索技术公司(SpaceX)提出的一个巨型低轨卫星互联网星座项目,计划在2019年至2024年间在太空搭建由约1.2万颗卫星组成的“星链”网络,其中1584颗将部署在地球上空550千米处的近地轨道,并从2020年开始工作。该卫星仍在工作。
与全量物体交会距离演化趋势
与全量物体交会风险概率演化趋势